sim
Sign-in with your pilot id or email,
or register
Callsign
Passwort

Schedule Details

Flight Number: RYR3741 (1)
Departure: Birmingham Airport (EGBB) at 06:50
Arrival: Fuerteventura Airport (GCFV) at 11:00
Route: Ryanair Passenger Schedule. Enter filed route here before submitting Pirep.

Weather Information
Getting current METAR information for EGBB 222250Z 21001KT 9999 BKN027 19/16 Q1021
Getting current METAR information for GCFV 222300Z AUTO 36018KT 9999 NCD 21/17 Q1018

Schedule Frequency

Route Map